{"data":{"norad_id":64851,"epoch":"2026-09-20T11:55:22.487520Z","epoch_age_seconds":124586,"freshness":"FRESH","line1":"1 64851U 25152K   26263.49678805  .00016925  00000+0  52513-3 0  9996","line2":"2 64851  97.2811 114.0535 0003155  78.2335 281.9262 15.33458607 64827","mean_motion":15.33458607,"eccentricity":0.0003155,"inclination_deg":97.2811,"raan_deg":114.0535,"arg_perigee_deg":78.2335,"mean_anomaly_deg":281.9262,"bstar":0.00052513,"rev_number":6482,"period_min":93.905371389004,"perigee_km":463.34352159667,"apogee_km":467.661858241,"semimajor_km":6843.6396899188,"source":"CELESTRAK","updated_at":"2026-09-21T09:00:35.450205Z"}}